Showing default

IRIDIUM 106, 41917

Orbit data source: Space-Track

IRIDIUM 106, 41917 is a payload satellite owned by Iridium (US) in LEO that was launched on Sat, 14 Jan 2017 UTC via an FALCON 9 launch vehicle from the Air Force Western Test Range (AFWTR). Payload-class satellites include a variety of spacecraft equipped with specific instruments for various scientific and technological missions. These include communications satellites like Starlink; space stations such as the ISS; scientific satellites like the Hubble; Earth observation satellites from companies like Planet Labs, Umbra, and HawkEye 360; GPS; miniature CubeSats for education and research; and military/defense satellites.

Loading next visibility...
Identifier
41917, 2017-003A
Orbit
LEO
Last TLE update
13 hours ago
Origin
Manufacturer
OATK SSG Gilbert
Mission
Operational Commercial Communications
Bus & Motor
ELITEBUS, Unknown motor
Mass
860 kg wet, 700 kg dry
Launch date (UTC)
2017-01-14 (8 years ago)
Launch vehicle
FALCON 9
Launch site
Air Force Western Test Range (AFWTR)
Object type
Payload
Rocket body
Debris
Shape & HBR
Trap Box + 2 Pan, 9.4 m
Radar Cross Section
14.423 m², Large (>1 m²)

Expand to show TLE details & history

TLE from 13 hours ago
0 IRIDIUM 106
1 41917U 17003A   25183.62497955  .00000003  00000-0 -59416-5 0  9993
2 41917  86.3967 234.5516 0001911  81.6720 278.4692 14.34217439443103
Epoch: 2025-07-02T14:59Z
TLE epoch observation values (Epoch: 2025-07-02T14:59:58.233Z)
Latitude
-0.00004°
Longitude
88.65556°
Altitude
780.518 km
Speed
7.464 km/s
True Right ascension
15h 38m 12s
True Declination
0° 00' 00"
Sunlit
Object was in full shadow at epoch
Visualization orbit readout
Latitude
-43.88449°
Longitude
-88.11278°
Altitude
795.763 km
Speed
7.454 km/s
Apparent Right ascension
03h 41m 16s
Apparent Declination
-41° 51' 54"
Sunlit
Object is in daylight
Visualization observer readout
Local Sidereal Time
15:30:52
Azimuth
224.432° SW
Elevation
-87.231°
Doppler factor
1
Orbital elements
Apogee altitude
776 km
Perigee altitude
773.266 km
Semi-major axis
7,152.77 km
Eccentricity
0.00019
Inclination
86.3967°
RAAN
234.5516°
Arg. of periapsis
81.672°
True anomaly
Unknown
Mean anomaly
278.4692°
Eccentric anomaly
Unknown
Mean motion
3.58783 °/min
Orbital period
100.34 mins
BSTAR
-0.0000059416
Loading maneuver chart data...
Loading SW <> Apogee altitude chart data...
Loading historical data...
Loading historical data...
Loading historical data...
Loading historical data...
Loading historical data...
Loading historical data...
Loading historical data...

IRIDIUM 106 Visibility forecast

Observer location: undefined°, undefined°

Span
Click to sort rows by Start time (UTC) header in descending order
Start Az.
Max El. time (UTC)
Max El. Az.
Max El.
End time (UTC)
End Az.
9 mins2025-07-03 04:30:37.892Z206.507° SW2025-07-03 04:34:37.892Z265.547° W35.043°2025-07-03 04:39:37.892Z348.474° N
8 mins2025-07-03 15:01:37.892Z16.539° NNE2025-07-03 15:05:37.892Z90.949° ESE34.732°2025-07-03 15:09:37.892Z152.307° SSE
5 mins2025-07-03 16:43:37.892Z309.545° NW2025-07-03 16:45:37.892Z281.218° WNW18.754°2025-07-03 16:48:37.892Z241.033° WSW
|